Regional Weather Roundup
Issued by NWS

Home | Current Version | Previous Version | Graphics & Text | Print | Product List | Glossary On
Versions: 1 2 3 4 5 6 7 8 9 10 11 12 13 14 15 16 17 18 19 20 21 22 23 24 25 26 27 28 29 30 31 32 33 34 35 36 37 38 39 40 41 42 43 44 45 46 47 48 49 50
000
ASUS43 KTOP 271059
RWRKS

WEATHER ROUNDUP FOR KANSAS
NATIONAL WEATHER SERVICE GOODLAND KS
600 AM CDT MON APR 27 2015

NOTE:  "FAIR" INDICATES FEW OR NO CLOUDS BELOW 12,000 FEET WITH NO
SIGNIFICANT WEATHER AND/OR OBSTRUCTIONS TO VISIBILITY.

KSZ001>006-013>018-027>032-041>047-271200-
NORTHWEST KANSAS

CITY           SKY/WX    TMP DP  RH WIND       PRES   REMARKS
GOODLAND       CLOUDY    44  42  93 NE13      30.12R FOG
HAYS           CLOUDY    45  34  65 NE14      30.07S
HILL CITY      CLOUDY    42  37  82 NE8       30.12R
RUSSELL        CLOUDY    42  39  89 NE10      30.06F
$$

KSZ061>065-074>080-084>089-271200-
SOUTHWEST KANSAS

CITY           SKY/WX    TMP DP  RH WIND       PRES   REMARKS
DODGE CITY     RAIN      45  41  86 NE15      30.01R FOG
ELKHART          N/A     43  39  86 N15         N/A
GARDEN CITY    CLOUDY    44  42  93 NE18      30.00S
GREAT BEND     CLOUDY    45  37  76 NE14      30.04S
LIBERAL        CLOUDY    46  43  87 NE18      29.96F
$$

KSZ066>073-081>083-090>101-271200-
SOUTHEAST KANSAS

CITY           SKY/WX    TMP DP  RH WIND       PRES   REMARKS
CHANUTE        CLOUDY    49  39  68 NE9       30.01F
COFFEYVILLE    CLOUDY    51  40  65 NE15      29.97S
HUTCHINSON     CLOUDY    48  38  68 NE10G18   30.01F
MEDICINE LODGE   N/A     48  43  82 NE13      29.94S
NEWTON         CLOUDY    46  36  66 NE15      30.03S
PARSONS        CLOUDY    51  40  65 VRB6      29.99F
WICHITA INTL   CLOUDY    52  37  56 NE16      29.99S
WICHITA JABRA  CLOUDY    49  38  65 NE13      30.00R
WINFIELD       CLOUDY    50  43  77 NE14      29.95F
$$

KSZ007>012-019>026-033>040-048>060-102>105-271200-
NORTHEAST KANSAS

CITY           SKY/WX    TMP DP  RH WIND       PRES   REMARKS
CONCORDIA      CLOUDY    41  33  73 NE5       30.11R
EMPORIA        CLOUDY    44  38  79 NE8       30.06S
LAWRENCE       CLOUDY    44  36  73 NE5       30.10R
MANHATTAN      CLOUDY    44  37  76 NE5       30.10R
OLATHE IND     CLOUDY    45  36  70 E3        30.09R
OLATHE EXE     CLOUDY    46  36  68 CALM      30.08R
SALINA         CLOUDY    46  37  71 NE6       30.09R
TOPEKA BILLARD CLOUDY    42  37  82 CALM      30.11R
TOPEKA FORBES  CLOUDY    42  37  82 CALM      30.10R
$$


USA.gov is the U.S. government's official web portal to all federal, state and local government web resources and services.